DELTA 1 DEB, 21501

Orbit data source: Space-Track

DELTA 1 DEB, 21501 is space debris in SSO originally from a launch on Thu, 12 Jun 1975 UTC launched from the Air Force Western Test Range (AFWTR). Debris objects in space refer to the collection of defunct objects orbiting the Earth. Examples of debris include non-operational satellites, rocket bodies, and fragments generated from explosions, collisions, or faulty payload assembly.

Loading next visibility...
Identifier
21501, 1975-052FW
Orbit
SSO
Country
Flag of USUS
Related business
Manufacturer
Unknown
Mission
Spacecraft
Bus & Motor
Unknown
Mass
Unknown
Launch date (UTC)
1975-06-12 (51 years ago)
Launch vehicle
Unknown
Launch site
Air Force Western Test Range (AFWTR)
Object type
Payload
Rocket body
Debris
Shape & HBR
Unknown shape, 0.1 m
Radar Cross Section
Small (<0.1 m²)

Expand to show TLE details & history
Last TLE update: 2 days ago

TLE from 2 days ago
0 DELTA 1 DEB
1 21501U 75052FW  25352.36273524 -.00000016  00000-0  71139-4 0  9990
2 21501  99.8092 274.7251 0547780 208.8546 283.1091 12.47754070574805
Epoch: 2025-12-18T08:42Z
TLE epoch observation values (Epoch: 2025-12-18T08:42:20.324Z)
Latitude
53.18039°
Longitude
-109.79326°
Altitude
1,407.612 km
Speed
7.195 km/s
True Right ascension
07h 12m 02s
True Declination
53° 01' 45"
Sunlit
Object was in full shadow at epoch
Visualization orbit readout
Latitude
Unknown
Longitude
Unknown
Altitude
Unknown
Speed
Unknown
Apparent Right ascension
Unknown
Apparent Declination
Unknown
Sunlit
N/A
Visualization observer readout
Local Sidereal Time
10:39:47
Azimuth
Unknown
Elevation
Unknown
Doppler factor
Unknown
Orbital elements
Apogee altitude
1,901.315 km
Perigee altitude
1,041.358 km
Semi-major axis
7,849.474 km
Eccentricity
0.05478
Inclination
99.8092°
RAAN
274.7251°
Arg. of periapsis
208.8546°
True anomaly
276.91134°
Mean anomaly
283.1091°
Eccentric anomaly
280.01841°
Mean motion
3.12092 °/min
Orbital period
115.35 mins
BSTAR
0.000071139
Loading maneuver chart data...
Computing Atmospheric mass density...
Loading historical data...
Loading historical data...
Loading historical data...
Loading historical data...
Loading historical data...
Loading historical data...
Loading historical data...

Documentation

Showing up to 5 results
|